リニア彗星

P/2010 A5 ( LINEAR )

English version
Home page
Updated on October 3, 2010

---------------------------------------------------------------------

・ プロフィール

発見日 2010年1月14日
発見光度 17.7等
発見者 Lincoln Laboratory Near-Earth Asteroid Research project

・ 写真集

・ 軌道要素

The following orbital elements are taken from MPC 70361:

Epoch 2010 May 4.0 TT = JDT 2455320.5
T 2010 Apr. 19.3160 TT                                  MPC
q   1.712051             (2000.0)            P               Q
n   0.0855740      Peri.  306.7066      -0.7073966      +0.6997330
a   5.100056       Node   277.9412      -0.6121000      -0.6770815
e   0.664307       Incl.    5.7844      -0.3534454      -0.2278913
P  11.5
From 468 observations 2010 Jan. 14-May 22.

・ 星図

・ 光度変化

        m1 = 11.0 + 5 logΔ + 18.0 log r(t + 15)

---------------------------------------------------------------------

軌道要素はMPCのEphemerides and Orbital Elementsに掲載されたものです。
星図はステラナビゲータ Ver.8 (アストロアーツ) で作成したものです。
光度グラフはComet for Windowsで作成したものです。

---------------------------------------------------------------------

Copyright(C) Seiichi Yoshida (comet@aerith.net). All rights reserved.